This demonstration page uses our WeatherBlox Daily Observations layout. Learn more.

Left ArrowRight Arrow

Hourly Observations for October 26, 2016

Temp ( °F °C ) Dew Point ( °F °C ) Humidity (%) Winds ( mph kmh ) Pressure ( in mb ) Visibility ( mi km ) Precip ( " mm )
12:53 am 00:53 Clear 66 18.9 61 16.1 84 84 SE 8 13 29.99 1016 10 16 0.00 0.00
1:53 am 01:53 Clear 65 18.3 60 15.6 84 84 ESE 9 15 29.98 1015 10 16 0.00 0.00
2:53 am 02:53 Clear 64 17.8 59 15 84 84 ESE 10 17 29.98 1015 10 16 0.00 0.00
3:53 am 03:53 Clear 63 17.2 58 14.4 84 84 ESE 9 15 29.97 1015 10 16 0.00 0.00
4:53 am 04:53 Clear 61 16.1 58 14.4 90 90 ESE 6 9 29.96 1015 10 16 0.00 0.00
5:53 am 05:53 Clear 57 13.9 55 12.8 93 93 Calm 29.98 1015 10 16 0.00 0.00
6:53 am 06:53 Clear 55 12.8 54 12.2 96 96 N 6 9 30.00 1016 7 11 0.00 0.00
7:53 am 07:53 Clear 53 11.7 52 11.1 96 96 N 8 13 30.02 1017 7 11 0.00 0.00
8:53 am 08:53 Sunny 56 13.3 54 12.2 93 93 NNW 7 11 30.05 1018 7 11 0.00 0.00
9:53 am 09:53 Sunny 64 17.8 57 13.9 78 78 VRB 5 7 30.07 1018 10 16 0.00 0.00
10:53 am 10:53 Sunny 70 21.1 59 15 68 68 NW 7 11 30.08 1019 10 16 0.00 0.00
11:53 am 11:53 Sunny 77 25 54 12.2 45 45 N 8 13 30.07 1018 10 16 0.00 0.00
12:53 pm 12:53 Sunny 81 27.2 53 11.7 38 38 NNW 6 9 30.04 1017 10 16 0.00 0.00
1:53 pm 13:53 Sunny 86 30 48 8.9 27 27 VRB 3 6 30.00 1016 10 16 0.00 0.00
2:53 pm 14:53 Sunny 90 32.2 42 5.6 19 19 NNW 7 11 29.97 1015 10 16 0.00 0.00
3:53 pm 15:53 Sunny 91 32.8 40 4.4 17 17 N 13 20 29.96 1014 10 16 0.00 0.00
4:53 pm 16:53 Sunny 90 32.2 39 3.9 17 17 NNW 12 19 29.96 1014 10 16 0.00 0.00
5:53 pm 17:53 Sunny 88 31.1 41 5 19 19 NNE 10 17 29.97 1015 10 16 0.00 0.00
6:53 pm 18:53 Sunny 84 28.9 43 6.1 24 24 NE 10 17 29.99 1016 10 16 0.00 0.00
7:53 pm 19:53 Clear 73 22.8 44 6.7 35 35 NE 9 15 30.04 1017 10 16 0.00 0.00
8:53 pm 20:53 Clear 71 21.7 45 7.2 39 39 NE 7 11 30.06 1018 10 16 0.00 0.00
9:53 pm 21:53 Clear 66 18.9 45 7.2 47 47 NNE 8 13 30.07 1018 10 16 0.00 0.00
10:53 pm 22:53 Clear 63 17.2 47 8.3 56 56 N 8 13 30.07 1018 10 16 0.00 0.00
11:53 pm 23:53 Clear 61 16.1 47 8.3 60 60 N 8 13 30.08 1019 10 16 0.00 0.00

Powered by AerisWeather